LiveATC.Net - Listen to live air traffic control over the Internet!

ICAO: URSS  IATA: AER   Airport: Sochi International Airport
City: Sochi
Country: Russia   Continent: Europe
URSS METAR Weather: URSS 202100Z 07004MPS 9999 BKN032 14/10 Q1022 R06/090070 R02/090070 NOSIG RMK R02/04003MPS MT OBSC QFE765
URSS Flight Activity (FlightAware)
URSS Webcam: (Airport Webcams)
URSS Gnd/Twr/App
Feed Status: UP   Listeners: 0
Listen right in your browser - requires Flash (in browser, requires Flash)
Click here to listen with your own player (launches your MP3 player)
URSS Gnd/Twr/App Audio Archives
Sochi Approach118.300
Sochi Approach119.700
Sochi District (Small Aircraft)118.500
Sochi Start121.200
Sochi Taxi119.000
Sochi Tower124.600


Unauthorized use prohibited. See Terms of Service

Find LiveATC Audio Streams

Airport/ARTCC Code

(e.g., 124.400, 128.75)
Site-wide search

Browse LiveATC Feeds
LiveATC Coverage Map
Top 50 LiveATC Feeds
Bad Weather Areas

Offer a LiveATC Feed
Press Inquiries

LiveATC on iPhone
LiveATC on Android

Windows Phone
Windows 8/10

LiveATC Mobile
(Mobile browser)

ATC Audio Archives
Interesting Recordings

LiveATC Forums

Home Page
Make a Donation
LiveATC Store

Terms of Use
Privacy Policy

Canadian Air Freqs


FAA Airport Status
Nat'l Airspace Status
Arrival Demand Charts

Server Software By: